| time (UTC) | temp F | wind direction | speed MPH | gust MPH | rain 1hr in | rain 24hr in | rain mn in | humidity % | barometer mb |
| 20260902095831 | 81 | 219 | 2.0 | 3.0 | 0.00 | 0.00 | 0.00 | 73 | 1014.5 |
| 20260902095332 | 81 | 200 | 3.0 | 3.0 | 0.00 | 0.00 | 0.00 | 73 | 1014.5 |
| 20260902094330 | 81 | 213 | 4.0 | 1.0 | 0.00 | 0.00 | 0.00 | 74 | 1014.6 |
| 20260902092831 | 81 | 213 | 2.0 | 3.0 | 0.00 | 0.00 | 0.00 | 75 | 1014.4 |
| 20260902091831 | 81 | 214 | 4.0 | 3.0 | 0.00 | 0.00 | 0.00 | 75 | 1014.3 |
| 20260902090831 | 81 | 212 | 3.0 | 2.0 | 0.00 | 0.00 | 0.00 | 76 | 1014.3 |
| 20260902090330 | 81 | 226 | 2.0 | 2.0 | 0.00 | 0.00 | 0.00 | 76 | 1014.3 |
| 20260902085330 | 81 | 191 | 1.0 | 2.0 | 0.00 | 0.00 | 0.00 | 76 | 1014.4 |
| 20260902084330 | 81 | 214 | 2.0 | 2.0 | 0.00 | 0.00 | 0.00 | 76 | 1014.4 |
| 20260902083330 | 81 | 188 | 1.0 | 2.0 | 0.00 | 0.00 | 0.00 | 76 | 1014.3 |
| 20260902082831 | 81 | 193 | 3.0 | 2.0 | 0.00 | 0.00 | 0.00 | 76 | 1014.2 |
| 20260902082330 | 81 | 205 | 2.0 | 2.0 | 0.00 | 0.00 | 0.00 | 76 | 1014.2 |
| 20260902080831 | 82 | 207 | 2.0 | 2.0 | 0.00 | 0.00 | 0.00 | 76 | 1014.1 |
| 20260902074831 | 82 | 187 | 2.0 | 2.0 | 0.00 | 0.00 | 0.00 | 76 | 1014.2 |
| 20260902074330 | 82 | 182 | 1.0 | 2.0 | 0.00 | 0.00 | 0.00 | 75 | 1014.2 |
| 20260902073831 | 82 | 217 | 3.0 | 2.0 | 0.00 | 0.00 | 0.00 | 75 | 1014.2 |
| 20260902073330 | 82 | 187 | 2.0 | 2.0 | 0.00 | 0.00 | 0.00 | 75 | 1014.2 |
| 20260902072330 | 82 | 193 | 2.0 | 1.0 | 0.00 | 0.00 | 0.00 | 76 | 1014.1 |
| 20260902071830 | 82 | 208 | 1.0 | 2.0 | 0.00 | 0.00 | 0.00 | 76 | 1014.1 |
| 20260902070909 | 81 | 201 | 2.0 | 2.0 | 0.00 | 0.00 | 0.00 | 76 | 1014.0 |
| 20260902065831 | 81 | 189 | 2.0 | 1.0 | 0.00 | 0.00 | 0.00 | 77 | 1014.1 |
| 20260902065330 | 81 | 218 | 2.0 | 1.0 | 0.00 | 0.00 | 0.00 | 77 | 1014.2 |
| 20260902064831 | 82 | 0 | 0.0 | 2.0 | 0.00 | 0.00 | 0.00 | 77 | 1014.3 |
| 20260902064330 | 82 | 223 | 2.0 | 2.0 | 0.00 | 0.00 | 0.00 | 77 | 1014.2 |
| 20260902061830 | 82 | 0 | 0.0 | 1.0 | 0.00 | 0.00 | 0.00 | 76 | 1014.2 |
| 20260902061331 | 83 | 205 | 1.0 | 1.0 | 0.00 | 0.00 | 0.00 | 76 | 1014.2 |
| 20260902060830 | 83 | 0 | 0.0 | 1.0 | 0.00 | 0.00 | 0.00 | 75 | 1014.2 |
| 20260902055830 | 83 | 231 | 2.0 | 2.0 | 0.00 | 0.00 | 0.00 | 75 | 1014.1 |
| 20260902055332 | 83 | 202 | 1.0 | 2.0 | 0.00 | 0.00 | 0.00 | 75 | 1014.0 |
| 20260902054831 | 83 | 213 | 2.0 | 2.0 | 0.00 | 0.00 | 0.00 | 74 | 1014.0 |
| 20260902053831 | 83 | 215 | 2.0 | 2.0 | 0.00 | 0.00 | 0.00 | 74 | 1014.1 |
| 20260902053331 | 84 | 217 | 1.0 | 2.0 | 0.00 | 0.00 | 0.00 | 74 | 1014.1 |
| 20260902052832 | 84 | 219 | 2.0 | 2.0 | 0.00 | 0.00 | 0.00 | 73 | 1014.2 |
| 20260902052330 | 84 | 189 | 2.0 | 2.0 | 0.00 | 0.00 | 0.00 | 73 | 1014.1 |
| 20260902045831 | 84 | 203 | 4.0 | 3.0 | 0.00 | 0.00 | 0.00 | 73 | 1014.1 |
| 20260902045331 | 84 | 178 | 3.0 | 3.0 | 0.00 | 0.00 | 0.00 | 72 | 1014.0 |
| 20260902044831 | 85 | 224 | 1.0 | 3.0 | 0.00 | 0.00 | 0.00 | 72 | 1014.0 |
| 20260902043831 | 85 | 214 | 1.0 | 2.0 | 0.00 | 0.00 | 0.00 | 72 | 1013.9 |
| 20260902043331 | 85 | 231 | 2.0 | 2.0 | 0.00 | 0.00 | 0.00 | 72 | 1014.0 |
| 20260902042831 | 85 | 209 | 1.0 | 2.0 | 0.00 | 0.00 | 0.00 | 71 | 1014.0 |
| 20260902042331 | 85 | 218 | 2.0 | 3.0 | 0.00 | 0.00 | 0.00 | 71 | 1014.0 |
| 20260902041832 | 85 | 224 | 4.0 | 3.0 | 0.00 | 0.00 | 0.00 | 71 | 1014.1 |
| 20260902041331 | 85 | 212 | 1.0 | 3.0 | 0.00 | 0.00 | 0.00 | 71 | 1014.1 |
| 20260902040331 | 85 | 148 | 3.0 | 2.0 | 0.00 | 0.00 | 0.00 | 71 | 1014.0 |
| 20260902035330 | 86 | 204 | 1.0 | 3.0 | 0.00 | 0.00 | 0.00 | 70 | 1014.2 |
| 20260902034831 | 86 | 198 | 1.0 | 3.0 | 0.00 | 0.00 | 0.00 | 70 | 1014.2 |
| 20260902033831 | 86 | 219 | 2.0 | 2.0 | 0.00 | 0.00 | 0.00 | 70 | 1014.2 |
| 20260902033331 | 86 | 206 | 3.0 | 2.0 | 0.00 | 0.00 | 0.00 | 70 | 1014.3 |
| 20260902032831 | 86 | 199 | 2.0 | 3.0 | 0.00 | 0.00 | 0.00 | 69 | 1014.3 |
| 20260902032331 | 86 | 240 | 4.0 | 2.0 | 0.00 | 0.00 | 0.00 | 69 | 1014.4 |
| 20260902031332 | 87 | 214 | 3.0 | 3.0 | 0.00 | 0.00 | 0.00 | 69 | 1014.2 |
| 20260902030831 | 87 | 210 | 1.0 | 3.0 | 0.00 | 0.00 | 0.00 | 69 | 1014.2 |
| 20260902030331 | 87 | 223 | 4.0 | 3.0 | 0.00 | 0.00 | 0.00 | 69 | 1014.2 |
| 20260902024331 | 87 | 215 | 1.0 | 3.0 | 0.00 | 0.00 | 0.00 | 68 | 1014.2 |
| 20260902023831 | 87 | 182 | 4.0 | 3.0 | 0.00 | 0.00 | 0.00 | 68 | 1014.1 |
| 20260902023332 | 88 | 217 | 4.0 | 3.0 | 0.00 | 0.00 | 0.00 | 68 | 1014.0 |
| 20260902022330 | 88 | 221 | 2.0 | 4.0 | 0.00 | 0.00 | 0.00 | 68 | 1014.1 |
| 20260902021831 | 88 | 208 | 3.0 | 4.0 | 0.00 | 0.00 | 0.00 | 68 | 1014.1 |
| 20260902021330 | 88 | 209 | 4.0 | 4.0 | 0.00 | 0.00 | 0.00 | 68 | 1014.1 |
| 20260902015331 | 89 | 228 | 3.0 | 3.0 | 0.00 | 0.00 | 0.00 | 67 | 1013.9 |
| 20260902014331 | 89 | 201 | 3.0 | 3.0 | 0.00 | 0.00 | 0.00 | 67 | 1013.9 |
| 20260902010330 | 90 | 193 | 2.0 | 3.0 | 0.00 | 0.00 | 0.00 | 63 | 1013.4 |
| 20260902003330 | 91 | 223 | 1.0 | 3.0 | 0.00 | 0.00 | 0.00 | 62 | 1013.1 |
| 20260902002831 | 91 | 198 | 4.0 | 3.0 | 0.00 | 0.00 | 0.00 | 61 | 1013.2 |
| 20260902001831 | 92 | 176 | 3.0 | 4.0 | 0.00 | 0.00 | 0.00 | 61 | 1013.2 |
| 20260902001333 | 92 | 229 | 5.0 | 4.0 | 0.00 | 0.00 | 0.00 | 61 | 1013.3 |
| 20260902000831 | 92 | 199 | 4.0 | 4.0 | 0.00 | 0.00 | 0.00 | 61 | 1013.2 |
| 20260902000331 | 92 | 220 | 4.0 | 3.0 | 0.00 | 0.00 | 0.00 | 61 | 1013.3 |
| 20260901235332 | 93 | 176 | 2.0 | 4.0 | 0.00 | 0.00 | 0.00 | 61 | 1013.4 |
| 20260901234831 | 93 | 208 | 3.0 | 4.0 | 0.00 | 0.00 | 0.00 | 60 | 1013.4 |
| 20260901234330 | 93 | 209 | 5.0 | 3.0 | 0.00 | 0.00 | 0.00 | 60 | 1013.3 |
| 20260901233831 | 93 | 193 | 3.0 | 4.0 | 0.00 | 0.00 | 0.00 | 60 | 1013.3 |
| 20260901233331 | 93 | 233 | 3.0 | 4.0 | 0.00 | 0.00 | 0.00 | 60 | 1013.3 |
| 20260901232831 | 93 | 190 | 6.0 | 4.0 | 0.00 | 0.00 | 0.00 | 59 | 1013.4 |
| 20260901232330 | 93 | 236 | 2.0 | 4.0 | 0.00 | 0.00 | 0.00 | 59 | 1013.5 |
| 20260901231332 | 94 | 226 | 8.0 | 4.0 | 0.00 | 0.00 | 0.00 | 59 | 1013.4 |
| 20260901230831 | 94 | 198 | 2.0 | 4.0 | 0.00 | 0.00 | 0.00 | 59 | 1013.4 |
| 20260901230331 | 94 | 221 | 6.0 | 5.0 | 0.00 | 0.00 | 0.00 | 59 | 1013.4 |
| 20260901225831 | 94 | 217 | 4.0 | 4.0 | 0.00 | 0.09 | 0.00 | 58 | 1013.4 |
| 20260901225332 | 94 | 163 | 8.0 | 4.0 | 0.00 | 0.09 | 0.00 | 59 | 1013.5 |
| 20260901224330 | 94 | 214 | 5.0 | 4.0 | 0.00 | 0.09 | 0.00 | 59 | 1013.5 |
| 20260901223831 | 94 | 217 | 5.0 | 5.0 | 0.00 | 0.09 | 0.00 | 58 | 1013.5 |
| 20260901223331 | 94 | 189 | 1.0 | 5.0 | 0.00 | 0.09 | 0.00 | 58 | 1013.5 |
| 20260901222833 | 94 | 224 | 6.0 | 5.0 | 0.00 | 0.09 | 0.00 | 58 | 1013.5 |
| 20260901222331 | 94 | 231 | 5.0 | 4.0 | 0.00 | 0.09 | 0.00 | 58 | 1013.5 |
| 20260901221831 | 95 | 193 | 3.0 | 4.0 | 0.00 | 0.09 | 0.00 | 58 | 1013.5 |
| 20260901221331 | 95 | 212 | 4.0 | 4.0 | 0.00 | 0.09 | 0.00 | 58 | 1013.5 |
| 20260901220330 | 96 | 221 | 5.0 | 3.0 | 0.00 | 0.09 | 0.00 | 57 | 1013.5 |
| 20260901215832 | 96 | 214 | 2.0 | 3.0 | 0.00 | 0.21 | 0.00 | 58 | 1013.4 |
| 20260901215330 | 96 | 226 | 3.0 | 3.0 | 0.00 | 0.21 | 0.00 | 58 | 1013.4 |
| 20260901214831 | 96 | 220 | 3.0 | 3.0 | 0.00 | 0.21 | 0.00 | 57 | 1013.5 |
| 20260901214330 | 96 | 250 | 2.0 | 3.0 | 0.00 | 0.21 | 0.00 | 56 | 1013.4 |
| 20260901213831 | 96 | 238 | 5.0 | 2.0 | 0.00 | 0.21 | 0.00 | 56 | 1013.4 |
| 20260901213331 | 96 | 212 | 2.0 | 3.0 | 0.00 | 0.21 | 0.00 | 58 | 1013.4 |
| 20260901211831 | 96 | 244 | 2.0 | 4.0 | 0.00 | 0.21 | 0.00 | 58 | 1013.5 |
| 20260901211330 | 96 | 225 | 4.0 | 3.0 | 0.00 | 0.21 | 0.00 | 58 | 1013.4 |
| 20260901205831 | 96 | 193 | 3.0 | 4.0 | 0.00 | 0.28 | 0.00 | 58 | 1013.5 |
| 20260901205331 | 96 | 196 | 6.0 | 4.0 | 0.00 | 0.28 | 0.00 | 58 | 1013.5 |
| 20260901204831 | 96 | 196 | 2.0 | 4.0 | 0.00 | 0.28 | 0.00 | 58 | 1013.5 |
| 20260901204330 | 96 | 274 | 1.0 | 5.0 | 0.00 | 0.28 | 0.00 | 57 | 1013.6 |
| 20260901203831 | 96 | 170 | 5.0 | 5.0 | 0.00 | 0.28 | 0.00 | 57 | 1013.4 |
| 20260901203330 | 97 | 183 | 7.0 | 4.0 | 0.00 | 0.28 | 0.00 | 57 | 1013.4 |
| 20260901202831 | 97 | 164 | 3.0 | 3.0 | 0.00 | 0.28 | 0.00 | 58 | 1013.5 |
| 20260901202330 | 97 | 224 | 1.0 | 4.0 | 0.00 | 0.28 | 0.00 | 57 | 1013.6 |
| 20260901201831 | 97 | 333 | 2.0 | 3.0 | 0.00 | 0.28 | 0.00 | 57 | 1013.6 |
| 20260901201330 | 97 | 181 | 6.0 | 3.0 | 0.00 | 0.28 | 0.00 | 58 | 1013.6 |
| 20260901200832 | 97 | 250 | 3.0 | 3.0 | 0.00 | 0.28 | 0.00 | 57 | 1013.6 |
| 20260901200330 | 97 | 224 | 4.0 | 3.0 | 0.00 | 0.28 | 0.00 | 57 | 1013.7 |
| 20260901195831 | 98 | 249 | 2.0 | 4.0 | 0.00 | 0.43 | 0.00 | 56 | 1013.6 |
| 20260901195330 | 99 | 227 | 5.0 | 3.0 | 0.00 | 0.43 | 0.00 | 55 | 1013.6 |
| 20260901194830 | 99 | 184 | 5.0 | 4.0 | 0.00 | 0.43 | 0.00 | 56 | 1013.7 |
| 20260901194330 | 99 | 221 | 3.0 | 4.0 | 0.00 | 0.43 | 0.00 | 55 | 1013.7 |
| 20260901193831 | 99 | 231 | 5.0 | 4.0 | 0.00 | 0.43 | 0.00 | 54 | 1013.7 |
| 20260901193331 | 99 | 229 | 5.0 | 4.0 | 0.00 | 0.43 | 0.00 | 55 | 1013.7 |
| 20260901192830 | 100 | 169 | 11.0 | 4.0 | 0.00 | 0.43 | 0.00 | 54 | 1013.8 |
| 20260901192331 | 100 | 198 | 3.0 | 4.0 | 0.00 | 0.43 | 0.00 | 54 | 1013.8 |
| 20260901191831 | 99 | 219 | 2.0 | 4.0 | 0.00 | 0.43 | 0.00 | 55 | 1013.8 |
| 20260901191330 | 99 | 209 | 2.0 | 5.0 | 0.00 | 0.43 | 0.00 | 54 | 1013.8 |
| 20260901190831 | 99 | 207 | 4.0 | 5.0 | 0.00 | 0.43 | 0.00 | 54 | 1013.8 |
| 20260901190330 | 100 | 213 | 6.0 | 5.0 | 0.00 | 0.43 | 0.00 | 53 | 1013.8 |
| 20260901185831 | 101 | 221 | 5.0 | 4.0 | 0.00 | 0.43 | 0.00 | 52 | 1013.9 |
| 20260901185330 | 101 | 206 | 1.0 | 3.0 | 0.00 | 0.43 | 0.00 | 53 | 1014.0 |
| 20260901184831 | 102 | 233 | 3.0 | 4.0 | 0.00 | 0.43 | 0.00 | 52 | 1014.0 |
| 20260901184330 | 102 | 186 | 5.0 | 4.0 | 0.00 | 0.43 | 0.00 | 52 | 1014.1 |
| 20260901183830 | 102 | 224 | 3.0 | 3.0 | 0.00 | 0.43 | 0.00 | 51 | 1014.1 |
| 20260901183331 | 102 | 170 | 1.0 | 3.0 | 0.00 | 0.43 | 0.00 | 53 | 1014.1 |
| 20260901182831 | 102 | 154 | 4.0 | 3.0 | 0.00 | 0.43 | 0.00 | 53 | 1014.1 |
| 20260901182330 | 102 | 226 | 4.0 | 2.0 | 0.00 | 0.43 | 0.00 | 53 | 1014.1 |
| 20260901181831 | 101 | 223 | 2.0 | 2.0 | 0.00 | 0.43 | 0.00 | 53 | 1014.1 |
| 20260901181330 | 101 | 228 | 3.0 | 2.0 | 0.00 | 0.43 | 0.00 | 53 | 1014.0 |
| 20260901180830 | 101 | 276 | 1.0 | 3.0 | 0.00 | 0.43 | 0.00 | 51 | 1014.0 |
| 20260901180330 | 101 | 233 | 2.0 | 3.0 | 0.00 | 0.43 | 0.00 | 52 | 1014.1 |
| 20260901175830 | 101 | 281 | 2.0 | 2.0 | 0.00 | 0.43 | 0.00 | 53 | 1014.2 |
| 20260901175330 | 101 | 0 | 0.0 | 2.0 | 0.00 | 0.43 | 0.00 | 53 | 1014.4 |
| 20260901174831 | 101 | 236 | 4.0 | 2.0 | 0.00 | 0.43 | 0.00 | 53 | 1014.3 |
| 20260901174331 | 101 | 307 | 2.0 | 2.0 | 0.00 | 0.43 | 0.00 | 53 | 1014.3 |
| 20260901173830 | 100 | 284 | 3.0 | 4.0 | 0.00 | 0.43 | 0.00 | 53 | 1014.4 |
| 20260901173330 | 100 | 194 | 3.0 | 4.0 | 0.00 | 0.43 | 0.00 | 53 | 1014.5 |
| 20260901172831 | 101 | 209 | 3.0 | 3.0 | 0.00 | 0.43 | 0.00 | 52 | 1014.4 |
| 20260901172333 | 100 | 231 | 2.0 | 2.0 | 0.00 | 0.43 | 0.00 | 53 | 1014.5 |
| 20260901171831 | 100 | 269 | 1.0 | 2.0 | 0.00 | 0.43 | 0.00 | 54 | 1014.6 |
| 20260901171330 | 100 | 221 | 7.0 | 2.0 | 0.00 | 0.43 | 0.00 | 54 | 1014.5 |
| 20260901170830 | 100 | 233 | 2.0 | 2.0 | 0.00 | 0.43 | 0.00 | 55 | 1014.6 |
| 20260901170332 | 99 | 225 | 2.0 | 3.0 | 0.00 | 0.43 | 0.00 | 56 | 1014.6 |
| 20260901165830 | 99 | 218 | 3.0 | 3.0 | 0.00 | 0.43 | 0.00 | 57 | 1014.6 |
| 20260901165330 | 99 | 207 | 2.0 | 2.0 | 0.00 | 0.43 | 0.00 | 57 | 1014.7 |
| 20260901164831 | 99 | 235 | 2.0 | 2.0 | 0.00 | 0.43 | 0.00 | 58 | 1014.7 |
| 20260901164331 | 98 | 223 | 1.0 | 2.0 | 0.00 | 0.43 | 0.00 | 59 | 1014.8 |
| 20260901163830 | 98 | 206 | 3.0 | 3.0 | 0.00 | 0.43 | 0.00 | 59 | 1014.8 |
| 20260901163330 | 97 | 224 | 5.0 | 3.0 | 0.00 | 0.43 | 0.00 | 60 | 1014.8 |
| 20260901162831 | 97 | 223 | 3.0 | 2.0 | 0.00 | 0.43 | 0.00 | 60 | 1014.8 |
| 20260901162331 | 96 | 240 | 2.0 | 2.0 | 0.00 | 0.43 | 0.00 | 62 | 1014.8 |
| 20260901161830 | 95 | 302 | 2.0 | 3.0 | 0.00 | 0.43 | 0.00 | 63 | 1014.8 |
| 20260901161331 | 95 | 281 | 3.0 | 2.0 | 0.00 | 0.43 | 0.00 | 63 | 1014.8 |
| 20260901160831 | 94 | 225 | 2.0 | 2.0 | 0.00 | 0.43 | 0.00 | 65 | 1014.7 |
| 20260901160330 | 93 | 247 | 3.0 | 3.0 | 0.00 | 0.43 | 0.00 | 65 | 1014.7 |
| 20260901155831 | 93 | 217 | 5.0 | 3.0 | 0.00 | 0.47 | 0.00 | 66 | 1014.7 |
| 20260901155330 | 92 | 212 | 2.0 | 2.0 | 0.00 | 0.47 | 0.00 | 67 | 1014.7 |
| 20260901154830 | 91 | 240 | 1.0 | 2.0 | 0.00 | 0.47 | 0.00 | 68 | 1014.7 |
| 20260901154330 | 90 | 0 | 0.0 | 2.0 | 0.00 | 0.47 | 0.00 | 69 | 1014.7 |
| 20260901153831 | 90 | 219 | 2.0 | 1.0 | 0.00 | 0.47 | 0.00 | 69 | 1014.7 |
| 20260901153330 | 90 | 0 | 0.0 | 2.0 | 0.00 | 0.47 | 0.00 | 69 | 1014.7 |
| 20260901152830 | 89 | 231 | 4.0 | 3.0 | 0.00 | 0.47 | 0.00 | 70 | 1014.8 |
| 20260901152330 | 89 | 193 | 3.0 | 3.0 | 0.00 | 0.47 | 0.00 | 71 | 1014.8 |
| 20260901151831 | 88 | 234 | 2.0 | 2.0 | 0.00 | 0.47 | 0.00 | 71 | 1014.8 |
| 20260901151330 | 88 | 160 | 5.0 | 3.0 | 0.00 | 0.47 | 0.00 | 71 | 1014.8 |
| 20260901150830 | 88 | 0 | 0.0 | 3.0 | 0.00 | 0.47 | 0.00 | 72 | 1014.7 |
| 20260901150330 | 87 | 194 | 2.0 | 2.0 | 0.00 | 0.47 | 0.00 | 73 | 1014.8 |
| 20260901145830 | 87 | 199 | 1.0 | 2.0 | 0.00 | 0.47 | 0.00 | 73 | 1014.7 |
| 20260901145330 | 87 | 217 | 3.0 | 3.0 | 0.00 | 0.47 | 0.00 | 74 | 1014.7 |
| 20260901144830 | 86 | 217 | 2.0 | 3.0 | 0.00 | 0.47 | 0.00 | 73 | 1014.7 |
| 20260901144331 | 86 | 212 | 3.0 | 3.0 | 0.00 | 0.47 | 0.00 | 74 | 1014.8 |
| 20260901143330 | 85 | 205 | 2.0 | 3.0 | 0.00 | 0.47 | 0.00 | 76 | 1014.8 |
| 20260901142832 | 85 | 226 | 2.0 | 3.0 | 0.00 | 0.47 | 0.00 | 76 | 1014.8 |
| 20260901142331 | 84 | 191 | 5.0 | 3.0 | 0.00 | 0.47 | 0.00 | 77 | 1014.8 |
| 20260901141831 | 83 | 185 | 3.0 | 3.0 | 0.00 | 0.47 | 0.00 | 78 | 1014.8 |
| 20260901141331 | 83 | 236 | 4.0 | 3.0 | 0.00 | 0.47 | 0.00 | 79 | 1014.7 |
| 20260901140832 | 82 | 219 | 5.0 | 2.0 | 0.00 | 0.47 | 0.00 | 80 | 1014.8 |
| 20260901140331 | 82 | 212 | 2.0 | 1.0 | 0.00 | 0.47 | 0.00 | 81 | 1014.8 |
| 20260901135831 | 81 | 0 | 0.0 | 2.0 | 0.00 | 0.62 | 0.00 | 81 | 1014.7 |
| 20260901135331 | 81 | 211 | 3.0 | 2.0 | 0.00 | 0.62 | 0.00 | 81 | 1014.8 |
| 20260901133831 | 80 | 203 | 1.0 | 2.0 | 0.00 | 0.62 | 0.00 | 83 | 1015.1 |
| 20260901133331 | 80 | 197 | 5.0 | 2.0 | 0.00 | 0.62 | 0.00 | 83 | 1015.2 |
| 20260901132832 | 80 | 206 | 5.0 | 2.0 | 0.00 | 0.62 | 0.00 | 84 | 1015.3 |
| 20260901132331 | 80 | 225 | 2.0 | 2.0 | 0.00 | 0.62 | 0.00 | 84 | 1015.3 |
| 20260901131831 | 79 | 200 | 3.0 | 2.0 | 0.00 | 0.62 | 0.00 | 84 | 1015.2 |
| 20260901131331 | 79 | 195 | 2.0 | 2.0 | 0.00 | 0.62 | 0.00 | 84 | 1015.3 |
| 20260901130832 | 79 | 224 | 2.0 | 2.0 | 0.00 | 0.62 | 0.00 | 84 | 1015.2 |
| 20260901130331 | 79 | 0 | 0.0 | 1.0 | 0.00 | 0.62 | 0.00 | 85 | 1015.2 |
| 20260901125831 | 79 | 201 | 1.0 | 2.0 | 0.00 | 0.64 | 0.00 | 85 | 1015.3 |
| 20260901125331 | 79 | 221 | 1.0 | 3.0 | 0.00 | 0.64 | 0.00 | 85 | 1015.2 |
| 20260901124833 | 79 | 224 | 4.0 | 2.0 | 0.00 | 0.64 | 0.00 | 85 | 1015.1 |
| 20260901124331 | 78 | 203 | 2.0 | 1.0 | 0.00 | 0.64 | 0.00 | 85 | 1015.1 |
| 20260901123831 | 78 | 210 | 2.0 | 1.0 | 0.00 | 0.64 | 0.00 | 86 | 1015.2 |
| 20260901123331 | 78 | 213 | 1.0 | 1.0 | 0.00 | 0.64 | 0.00 | 86 | 1015.1 |
| 20260901122832 | 78 | 205 | 2.0 | 1.0 | 0.00 | 0.64 | 0.00 | 86 | 1015.1 |
| 20260901122331 | 78 | 0 | 0.0 | 2.0 | 0.00 | 0.64 | 0.00 | 86 | 1015.1 |
| 20260901121832 | 78 | 215 | 2.0 | 1.0 | 0.00 | 0.64 | 0.00 | 86 | 1015.0 |
| 20260901121331 | 78 | 197 | 1.0 | 1.0 | 0.00 | 0.64 | 0.00 | 86 | 1014.9 |
| 20260901120831 | 78 | 188 | 1.0 | 1.0 | 0.00 | 0.64 | 0.00 | 86 | 1014.9 |
| 20260901120331 | 77 | 213 | 2.0 | 1.0 | 0.00 | 0.64 | 0.00 | 86 | 1014.9 |
| 20260901115831 | 77 | 204 | 1.0 | 1.0 | 0.00 | 0.67 | 0.00 | 86 | 1014.9 |
| 20260901114831 | 77 | 217 | 3.0 | 1.0 | 0.00 | 0.67 | 0.00 | 86 | 1014.7 |
| 20260901114331 | 77 | 224 | 1.0 | 1.0 | 0.00 | 0.67 | 0.00 | 86 | 1014.6 |
| 20260901113831 | 77 | 186 | 1.0 | 1.0 | 0.00 | 0.67 | 0.00 | 86 | 1014.6 |
| 20260901113331 | 77 | 187 | 1.0 | 1.0 | 0.00 | 0.67 | 0.00 | 86 | 1014.6 |
| 20260901112831 | 77 | 0 | 0.0 | 1.0 | 0.00 | 0.67 | 0.00 | 86 | 1014.6 |
| 20260901112331 | 77 | 198 | 1.0 | 0.0 | 0.00 | 0.67 | 0.00 | 85 | 1014.5 |
| 20260901111831 | 77 | 198 | 1.0 | 0.0 | 0.00 | 0.67 | 0.00 | 85 | 1014.4 |
| 20260901111330 | 77 | 0 | 0.0 | 0.0 | 0.00 | 0.67 | 0.00 | 85 | 1014.2 |
| 20260901110831 | 77 | 0 | 0.0 | 0.0 | 0.00 | 0.67 | 0.00 | 85 | 1014.2 |
| 20260901110331 | 77 | 0 | 0.0 | 1.0 | 0.00 | 0.67 | 0.00 | 85 | 1014.2 |
| 20260901105330 | 77 | 195 | 2.0 | 1.0 | 0.00 | 0.67 | 0.00 | 85 | 1014.2 |
| 20260901104832 | 77 | 186 | 1.0 | 2.0 | 0.00 | 0.67 | 0.00 | 85 | 1014.3 |
| 20260901104331 | 77 | 214 | 2.0 | 2.0 | 0.00 | 0.67 | 0.00 | 85 | 1014.3 |
| 20260901103831 | 77 | 216 | 2.0 | 2.0 | 0.00 | 0.67 | 0.00 | 85 | 1014.2 |
| 20260901103331 | 78 | 188 | 2.0 | 1.0 | 0.00 | 0.67 | 0.00 | 85 | 1014.1 |
| 20260901102331 | 78 | 208 | 1.0 | 1.0 | 0.00 | 0.67 | 0.00 | 85 | 1014.1 |
| 20260901101831 | 78 | 220 | 1.0 | 1.0 | 0.00 | 0.67 | 0.00 | 85 | 1014.1 |
| 20260901101331 | 78 | 214 | 1.0 | 1.0 | 0.00 | 0.67 | 0.00 | 85 | 1014.1 |